Home   Weather   Accra   Past weeks

Flag for Ghana Past Weather in Accra, Ghana — Yesterday and Last 2 Weeks

Now
79 °F

Passing clouds.


Feels Like: 82 °F
Forecast: N/A
Wind: 10 mph from South

Location: Accra Airport

Current Time: Sep 29, 2016 at 8:36:52 PM

Latest Report: Sep 29, 2016 at 8:00 PM


Visibility: N/A

Pressure: 29.86 "Hg

Humidity: 89%

Dew Point: 75 °F

Location of AccraLocation

Past Weather in Accra — Graph

°F

Accra Temperature Yesterday

Maximum temperature yesterday: 84 °F (at 1:00 PM)
Minimum temperature yesterday: 75 °F (at 3:00 AM)
Average temperature yesterday: 79 °F

High & Low Weather Summary for the Past Weeks

 TemperatureHumidityPressure
High88 °F (Sep 17, 1:00 PM)100% (Sep 15, 7:00 AM)30.01 "Hg (Sep 15, 7:00 AM)
Low73 °F (Sep 23, 9:00 PM)62% (Sep 17, 1:00 PM)29.83 "Hg (Sep 20, 3:00 PM)
Average79 °F86%29.92 "Hg
* Reported Sep 14 7:00 PM — Sep 29 7:00 PM, Accra, Weather by CustomWeather, © 2016

Note: Actual official high and low records may vary slightly from our data, if they occured in-between our weather recording intervals... More about our weather records

Advertising

Accra Weather History for the Previous 24 Hours

Scroll right to see more
 ConditionsComfort  
Time TempWeatherWind HumidityBarometerVisibility
7:00 PM
Thu, Sep 29
81 °FPassing clouds.12 mph84%29.86 "HgN/A
6:00 PM81 °FPassing clouds.12 mph84%29.83 "HgN/A
5:00 PM81 °FPassing clouds.13 mph84%29.83 "HgN/A
4:00 PM82 °FPassing clouds.15 mph74%29.83 "HgN/A
3:00 PM84 °FPassing clouds.13 mph74%29.83 "HgN/A
2:00 PM86 °FPassing clouds.12 mph70%29.86 "HgN/A
1:00 PM84 °FScattered clouds.14 mph74%29.89 "HgN/A
12:00 PM86 °FPartly sunny.8 mph66%29.92 "HgN/A
10:00 AM84 °FPassing clouds.6 mph74%29.98 "HgN/A
9:00 AM81 °FScattered clouds.7 mph84%29.98 "HgN/A
8:00 AM79 °FPassing clouds.9 mph89%29.95 "HgN/A
7:00 AM77 °FScattered clouds.7 mph94%29.92 "HgN/A
6:00 AM75 °FPartly sunny.5 mph100%29.92 "HgN/A
5:00 AM75 °FPassing clouds.7 mph100%29.89 "HgN/A
4:00 AM77 °FPassing clouds.8 mph94%29.89 "HgN/A
3:00 AM77 °FPassing clouds.7 mph94%29.89 "HgN/A
2:00 AM77 °FPassing clouds.7 mph94%29.89 "HgN/A
1:00 AM79 °FPassing clouds.7 mph89%29.89 "HgN/A
12:00 AM79 °FPassing clouds.7 mph89%29.92 "HgN/A
11:00 PM
Wed, Sep 28
79 °FPartly cloudy.9 mph89%29.92 "HgN/A
10:00 PM79 °FPassing clouds.7 mph89%29.92 "HgN/A
9:00 PM79 °FPassing clouds.7 mph89%29.92 "HgN/A
8:00 PM77 °FPassing clouds.8 mph94%29.89 "HgN/A
Weather by CustomWeather, © 2016

See weather overviewHow to use our weather pages